[[{"header":{"parameterUnit":"m.s-1","parameterCategory":1,"la1":30.2991,"la2":30.254,"lo1":-89.0895,"lo2":-89.0444,"dy":0.0017,"dx":0.0017,"nx":28,"ny":28,"refTime":"2023-07-24T21:00:00:Z","depth":0,"parameterNumber":2,"parameterNumberName":"U-component_of_WINDS"},"data":[0,0,0,0,0,0,0,0,0,0,0,0,0,0,0,0,0,0,0,0,0,0,0,0,0,0,0,0,0,0,0,0,0,0,0,0,0,0,0,0,0,0,0,0,0,0,0,0,0,0,0,0,0,0,0,0,0,0,0.7704,0.7705,0,0.7814,0.7815,0.7816,0.7861,0.7861,0.7861,0.786,0.7973,0.7976,0.798,0,0,0,0,0,0,0,0,0,0,0,0,0,0.7532,0.7535,0.7703,0.7705,0.7706,0.7813,0.7815,0.7816,0.7861,0.7861,0.786,0.786,0.7972,0.7976,0.798,0,0,0,0,0,0,0,0,0,0,0,0,0,0.762,0.7536,0.7703,0.7741,0.7746,0.7813,0.7815,0.7817,0.7861,0.7861,0.786,0.786,0.7971,0.7976,0.798,0.8018,0,0,0.7995,0.7997,0,0,0,0,0,0,0,0,0.7615,0.7627,0.7734,0.7739,0.7744,0.7823,0.7796,0.7884,0.7861,0.7817,0.786,0.786,0.7924,0.7932,0.7954,0.8023,0.8028,0.7996,0.7999,0.8001,0.8002,0,0,0,0,0,0,0,0.7609,0.7622,0.7747,0.7736,0.7742,0.7753,0.7765,0.7813,0.7871,0.7821,0.7825,0.7837,0.7926,0.7949,0.7957,0.803,0.7996,0.8,0.8003,0.8005,0.8135,0.8136,0,0,0,0,0,0,0.7597,0.7617,0.7744,0.775,0.7677,0.7756,0.777,0.7798,0.7871,0.7882,0.7837,0.7839,0.7941,0.7951,0.7961,0.801,0.8001,0.8005,0.8008,0.8135,0.8135,0.8136,0,0,0,0,0,0,0.7593,0.7608,0.7739,0.7685,0.7702,0.776,0.7791,0.7801,0.7823,0.7883,0.7894,0.785,0.7941,0.7954,0.8003,0.8014,0.8007,0.8012,0.8134,0.8135,0.8136,0.8107,0,0,0,0,0,0,0.7588,0.7606,0.7621,0.7685,0.7705,0.778,0.7792,0.7803,0.7832,0.7835,0.7898,0.7908,0.7942,0.7996,0.8008,0.8021,0.8016,0.8133,0.8134,0.8135,0.8107,0.8107,0.8106,0,0,0,0,0,0.7581,0.7608,0.7621,0.7636,0.7725,0.778,0.7792,0.783,0.7832,0.7848,0.7886,0.7906,0.8011,0.8001,0.8015,0.8029,0.8133,0.8134,0.8135,0.8107,0.8107,0.8106,0,0,0,0,0,0,0.7544,0.7617,0.7633,0.7681,0.7724,0.7788,0.7808,0.7828,0.7872,0.7873,0.7919,0.7932,0.7978,0.8008,0.7996,0.8069,0.8073,0.8078,0.8047,0.8047,0.8047,0.8038,0.802,0,0,0,0,0,0.7541,0.758,0.7642,0.7679,0.77,0.775,0.7776,0.7802,0.7848,0.7866,0.7908,0.7953,0.7996,0.8023,0.8066,0.8112,0.8126,0.8129,0.8128,0.8127,0.813,0.8157,0.8158,0.814,0.814,0.814,0,0,0.7537,0.7581,0.7603,0.7673,0.7709,0.7748,0.7765,0.7806,0.7835,0.7873,0.7922,0.7954,0.8007,0.8054,0.8077,0.8081,0.8139,0.8129,0.8128,0.8131,0.8158,0.816,0.8161,0.8141,0.8141,0.8141,0,0,0.7548,0.7585,0.762,0.7656,0.7711,0.7744,0.7752,0.7813,0.7836,0.7886,0.7915,0.7951,0.8024,0.806,0.8088,0.8112,0.8132,0.8125,0.8123,0.8148,0.8149,0.8151,0.8159,0.8162,0.8128,0.8128,0.8128,0,0.7534,0.7595,0.7635,0.7675,0.7704,0.774,0.7775,0.7808,0.7874,0.7894,0.7897,0.799,0.8028,0.8084,0.809,0.8111,0.8122,0.8118,0.8146,0.8148,0.815,0.8158,0.8162,0.8127,0.8127,0.8127,0.8127,0,0.7576,0.7617,0.7638,0.7701,0.7733,0.777,0.7816,0.7844,0.7867,0.79,0.795,0.7997,0.805,0.8065,0.8088,0.8125,0.8126,0.8137,0.8142,0.8149,0.8158,0.8162,0.8125,0.8125,0.8126,0.8126,0,0,0.7566,0.7651,0.7658,0.7687,0.775,0.7783,0.7821,0.7873,0.7896,0.794,0.7974,0.8035,0.8045,0.8077,0.8105,0.8127,0.8143,0.8135,0.8137,0.8135,0.8186,0.8177,0.818,0.8156,0.8157,0.8158,0.8182,0,0.7586,0.7656,0.7694,0.7749,0.7787,0.7821,0.7855,0.7897,0.7929,0.7967,0.8002,0.8044,0.8055,0.8074,0.8098,0.8136,0.8154,0.8135,0.8188,0.819,0.8174,0.8185,0.8176,0.8196,0.8186,0.8186,0.8187,0,0.7618,0.7661,0.772,0.7778,0.7796,0.7826,0.7876,0.7911,0.796,0.7982,0.8017,0.8044,0.8086,0.8088,0.8147,0.8133,0.8157,0.8179,0.8181,0.8187,0.8188,0.8192,0.8204,0.8207,0.8193,0.8192,0.8192,0,0.7604,0.7678,0.7723,0.7746,0.7816,0.7836,0.7866,0.7914,0.7943,0.7987,0.8006,0.8054,0.808,0.8117,0.8157,0.8155,0.8211,0.8217,0.823,0.8229,0.8241,0.824,0.8257,0.8256,0.8256,0.8256,0.8256,0,0.7622,0.7656,0.7718,0.7745,0.7785,0.7827,0.7865,0.7898,0.7941,0.7975,0.8008,0.8039,0.8089,0.8127,0.8158,0.8202,0.8214,0.8232,0.824,0.8229,0.8227,0.8246,0.8245,0.8257,0.8257,0.8257,0.8257,0,0.7614,0.7657,0.7707,0.7769,0.7785,0.7812,0.7864,0.7892,0.7926,0.7968,0.7981,0.8033,0.808,0.8122,0.8184,0.8205,0.8249,0.8259,0.8232,0.8237,0.8248,0.8246,0.8278,0.8284,0.8279,0.8279,0.8279,0,0.7622,0.765,0.7714,0.7739,0.7769,0.7809,0.7838,0.7882,0.7911,0.7968,0.7989,0.8038,0.8079,0.8151,0.8194,0.8242,0.8253,0.8261,0.8261,0.8249,0.8253,0.8251,0.8254,0.826,0.826,0.826,0.826,0,0.7633,0.7652,0.7693,0.7742,0.7776,0.7816,0.7857,0.7876,0.7927,0.7958,0.8006,0.8038,0.8101,0.8148,0.82,0.8231,0.8254,0.8259,0.8265,0.8254,0.8238,0.8247,0.823,0.8259,0.8259,0.8259,0.8259,0.8259,0.7633,0.7659,0.7708,0.7753,0.7789,0.7826,0.7856,0.7892,0.7933,0.7987,0.801,0.8058,0.8106,0.8179,0.8209,0.8248,0.8253,0.8261,0.8263,0.8264,0.8262,0.8231,0.8258,0.8258,0.8258,0.8258,0.8258,0,0.7645,0.7678,0.7719,0.7776,0.7811,0.7829,0.7876,0.7904,0.7946,0.7988,0.8028,0.8083,0.8129,0.8176,0.8225,0.8247,0.8259,0.8258,0.8257,0.8264,0.8255,0.8245,0.8248,0.8248,0.8248,0.8248,0.8248,0.8248,0.7655,0.77,0.7725,0.7788,0.7821,0.7868,0.7893,0.7928,0.7963,0.8022,0.8061,0.8091,0.8136,0.8189,0.8232,0.8245,0.8261,0.8258,0.8274,0.8264,0.8265,0.8265,0.8256,0.8261,0.8261,0.828,0.828,0.828]},{"header":{"parameterUnit":"m.s-1","parameterCategory":1,"la1":30.2991,"la2":30.254,"lo1":-89.0895,"lo2":-89.0444,"dy":0.0017,"dx":0.0017,"nx":28,"ny":28,"refTime":"2023-07-24T21:00:00:Z","depth":0,"parameterNumber":3,"parameterNumberName":"V-component_of_WINDS"},"data":[0,0,0,0,0,0,0,0,0,0,0,0,0,0,0,0,0,0,0,0,0,0,0,0,0,0,0,0,0,0,0,0,0,0,0,0,0,0,0,0,0,0,0,0,0,0,0,0,0,0,0,0,0,0,0,0,0,0,3.8833,3.8833,0,3.8809,3.8809,3.8809,3.8759,3.8758,3.8757,3.8756,3.873,3.873,3.8731,0,0,0,0,0,0,0,0,0,0,0,0,0,3.8836,3.8837,3.8833,3.8833,3.8833,3.8809,3.8809,3.8809,3.8759,3.8758,3.8757,3.8756,3.873,3.873,3.8731,0,0,0,0,0,0,0,0,0,0,0,0,0,3.8826,3.8837,3.8833,3.8805,3.8803,3.8809,3.8809,3.8808,3.8759,3.8758,3.8757,3.8755,3.873,3.873,3.8731,3.8762,0,0,3.8732,3.8732,0,0,0,0,0,0,0,0,3.8827,3.8826,3.881,3.8807,3.8804,3.8786,3.88,3.8793,3.876,3.8776,3.8756,3.8754,3.875,3.8748,3.8747,3.8761,3.876,3.8732,3.8732,3.8732,3.8732,0,0,0,0,0,0,0,3.8827,3.8827,3.8824,3.881,3.8806,3.8794,3.8791,3.8799,3.8771,3.8774,3.8771,3.8769,3.8748,3.8747,3.8746,3.876,3.8732,3.8732,3.8732,3.8732,3.88,3.8801,0,0,0,0,0,0,3.8832,3.8828,3.8824,3.8823,3.8812,3.8795,3.8792,3.8793,3.8771,3.8766,3.877,3.8766,3.8747,3.8746,3.8745,3.8781,3.8732,3.8732,3.8733,3.8798,3.88,3.8802,0,0,0,0,0,0,3.8833,3.8833,3.8825,3.8824,3.8822,3.8797,3.8799,3.8793,3.8792,3.8768,3.8763,3.8774,3.8746,3.8744,3.8759,3.878,3.8733,3.8733,3.8796,3.8799,3.8801,3.8854,0,0,0,0,0,0,3.8833,3.8833,3.8845,3.8825,3.8823,3.884,3.88,3.8794,3.8793,3.8788,3.877,3.8766,3.8744,3.8759,3.8759,3.8779,3.8733,3.8794,3.8798,3.88,3.885,3.8858,3.8864,0,0,0,0,0,3.8833,3.886,3.8845,3.8845,3.8837,3.8841,3.884,3.8815,3.8795,3.8807,3.8791,3.8766,3.8778,3.876,3.8761,3.8781,3.8793,3.8797,3.88,3.8847,3.8856,3.8864,0,0,0,0,0,0,3.8881,3.8857,3.884,3.8861,3.8854,3.8833,3.8846,3.8826,3.8823,3.8819,3.8788,3.8785,3.8803,3.8794,3.8775,3.8811,3.8781,3.8785,3.8817,3.8825,3.8832,3.8834,3.8733,0,0,0,0,0,3.8895,3.89,3.8878,3.8899,3.8896,3.8872,3.8873,3.8855,3.8846,3.8842,3.8828,3.8819,3.8821,3.8823,3.8823,3.8849,3.8844,3.8863,3.887,3.8876,3.8879,3.8893,3.8902,3.8814,3.8814,3.8814,0,0,3.8922,3.8909,3.8914,3.8909,3.89,3.8907,3.887,3.8878,3.8883,3.8843,3.8856,3.8846,3.8834,3.8855,3.8863,3.8847,3.8903,3.8881,3.8886,3.8886,3.8898,3.8906,3.8914,3.8816,3.8816,3.8815,0,0,3.8974,3.8965,3.8982,3.8975,3.8964,3.8948,3.8953,3.8935,3.8927,3.8939,3.891,3.8916,3.8919,3.8912,3.891,3.8963,3.894,3.8963,3.9,3.9014,3.9021,3.9027,3.9046,3.9053,3.8967,3.8967,3.8967,0,3.9009,3.9018,3.8993,3.9004,3.9002,3.8968,3.8985,3.898,3.8969,3.8969,3.8952,3.8957,3.8946,3.8965,3.8979,3.8977,3.8981,3.8965,3.9022,3.9028,3.9033,3.9051,3.9058,3.897,3.897,3.897,3.8969,0,3.9062,3.9069,3.9083,3.9075,3.9076,3.9089,3.9066,3.907,3.9053,3.9039,3.9053,3.904,3.9038,3.9041,3.9024,3.9058,3.9049,3.9027,3.8996,3.9045,3.9061,3.9067,3.8974,3.8973,3.8972,3.8972,0,0,3.9142,3.9121,3.9127,3.9123,3.911,3.9114,3.9127,3.9126,3.913,3.9124,3.9134,3.9139,3.912,3.9116,3.9098,3.9111,3.9154,3.9088,3.9087,3.91,3.9192,3.9208,3.9216,3.9139,3.9141,3.9142,3.9193,0,3.9191,3.9212,3.919,3.9215,3.9222,3.9191,3.9202,3.9195,3.9183,3.9187,3.9174,3.9178,3.9152,3.915,3.9161,3.9147,3.9172,3.9143,3.9148,3.9149,3.9152,3.9224,3.9241,3.929,3.9199,3.92,3.9201,0,3.925,3.9249,3.9275,3.9261,3.9263,3.9273,3.9271,3.9275,3.9267,3.9258,3.9256,3.9234,3.9246,3.9217,3.9233,3.9214,3.9215,3.9209,3.921,3.9209,3.9177,3.9225,3.9304,3.9312,3.921,3.921,3.9209,0,3.9306,3.9311,3.9327,3.9325,3.9309,3.9318,3.9311,3.9302,3.9303,3.9301,3.9302,3.9301,3.93,3.9301,3.928,3.9261,3.9299,3.9268,3.9292,3.9292,3.93,3.93,3.9381,3.9302,3.9302,3.9302,3.9302,0,3.9363,3.938,3.9352,3.9362,3.9381,3.9357,3.9376,3.9367,3.9359,3.9367,3.934,3.9348,3.9321,3.9326,3.931,3.9327,3.9326,3.9319,3.9315,3.9321,3.9322,3.9321,3.9317,3.9304,3.9303,3.9303,3.9302,0,3.9428,3.941,3.9426,3.9411,3.9407,3.9422,3.9409,3.9417,3.9405,3.9415,3.9416,3.9396,3.9401,3.9381,3.9382,3.9372,3.9396,3.9386,3.9399,3.9395,3.942,3.9418,3.9503,3.9513,3.9428,3.9429,3.943,0,3.9465,3.9477,3.9464,3.9468,3.9463,3.947,3.9471,3.9449,3.9451,3.9444,3.9454,3.9457,3.9458,3.9467,3.9453,3.9454,3.9443,3.9473,3.9443,3.945,3.9444,3.9443,3.9445,3.9479,3.948,3.9481,3.9482,0,3.9532,3.9523,3.9526,3.9527,3.953,3.9529,3.9527,3.9531,3.9507,3.9512,3.9517,3.9518,3.952,3.9524,3.9522,3.9516,3.9495,3.9492,3.9497,3.9503,3.951,3.9507,3.9415,3.9489,3.9488,3.9488,3.9487,3.9487,3.9584,3.9594,3.9587,3.9592,3.9588,3.9587,3.9595,3.9584,3.9588,3.9589,3.9575,3.9584,3.9577,3.9573,3.9569,3.9575,3.9561,3.9569,3.9571,3.9573,3.9577,3.951,3.9574,3.9574,3.9574,3.9574,3.9574,0,3.965,3.9644,3.9649,3.9647,3.9652,3.9633,3.963,3.9634,3.9642,3.9638,3.964,3.9647,3.9651,3.9637,3.9639,3.9647,3.9638,3.9648,3.9647,3.9646,3.9589,3.9585,3.9656,3.9656,3.9656,3.9656,3.9656,3.9656,3.9685,3.9701,3.9692,3.9707,3.9701,3.971,3.971,3.9709,3.9705,3.9715,3.9718,3.971,3.9702,3.9703,3.9706,3.9702,3.9704,3.9718,3.9711,3.9658,3.965,3.9642,3.9637,3.9719,3.9719,3.9767,3.9767,3.9768]}]]